SL-16 DEB, 22509

Orbit data source: Space-Track

SL-16 DEB, 22509 is space debris in LEO originally from a launch on Fri, 25 Dec 1992 UTC launched from the Tyuratam Missile And Space Complex (TTMTR). Debris objects in space refer to the collection of defunct objects orbiting the Earth. Examples of debris include non-operational satellites, rocket bodies, and fragments generated from explosions, collisions, or faulty payload assembly.

Loading next visibility...
Identifier
22509, 1992-093GU
Orbit
LEO
Country
Flag of CISCIS
Related business
Manufacturer
Unknown
Mission
Spacecraft
Bus & Motor
Unknown
Mass
Unknown
Launch date (UTC)
1992-12-25 (33 years ago)
Launch vehicle
Unknown
Launch site
Tyuratam Missile And Space Complex (TTMTR)
Object type
Payload
Rocket body
Debris
Shape & HBR
Unknown shape, 0.1 m
Radar Cross Section
Small (<0.1 m²)

Expand to show TLE details & history
Last TLE update: 12 hours ago

TLE from 12 hours ago
0 SL-16 DEB
1 22509U 92093GU  26127.18667006  .00001698  00000-0  68608-3 0  9998
2 22509  71.1303  35.5059 0104811 187.5827 325.4126 14.26284178709591
Epoch: 2026-05-07T04:28Z
TLE epoch observation values (Epoch: 2026-05-07T04:28:48.293Z)
Latitude
26.13393°
Longitude
-86.33308°
Altitude
745.131 km
Speed
7.517 km/s
True Right ascension
13h 43m 37s
True Declination
25° 59' 53"
Sunlit
Object was in full shadow at epoch
Visualization orbit readout
Latitude
Unknown
Longitude
Unknown
Altitude
Unknown
Speed
Unknown
Apparent Right ascension
Unknown
Apparent Declination
Unknown
Sunlit
N/A
Visualization observer readout
Local Sidereal Time
00:10:35
Azimuth
Unknown
Elevation
Unknown
Doppler factor
Unknown
Orbital elements
Apogee altitude
877.335 km
Perigee altitude
726.822 km
Semi-major axis
7,180.216 km
Eccentricity
0.01048
Inclination
71.1303°
RAAN
35.5059°
Arg. of periapsis
187.5827°
True anomaly
324.7234°
Mean anomaly
325.4126°
Eccentric anomaly
325.06874°
Mean motion
3.56728 °/min
Orbital period
100.92 mins
BSTAR
0.00068608
Loading maneuver chart data...
Computing Atmospheric mass density...

Documentation

Showing up to 5 results
|